This demonstration page uses our WeatherBlox Daily Observations layout. Learn more.

Left ArrowRight Arrow

34.02893, -84.19858

Hourly Observations for June 17, 2022

Temp ( °F °C ) Dew Point ( °F °C ) Humidity (%) Winds ( mph kmh ) Pressure ( in mb ) Visibility ( mi km ) Precip ( " mm )
12:20 am 00:20 Clear with Nearby Thunderstorms 76 24.4 74 23.3 94 94 Calm 30.13 1020 9 14 0.00 0.00
12:35 am 00:35 Clear 76 24.4 74 23.3 94 94 Calm 30.12 1020 10 16 0.00 0.00
12:42 am 00:42 Clear with Nearby Thunderstorms 76 24.4 74 23.3 94 94 Calm 30.12 1020 8 13 0.00 0.00
12:53 am 00:53 Clear 76 24.4 74 23.3 94 94 N 3 6 30.10 1019 8 13 0.00 0.00
1:53 am 01:53 Clear 76 24.4 73 22.8 91 91 N 3 6 30.08 1019 10 16 0.00 0.00
2:53 am 02:53 Mostly Cloudy 76 24.4 73 22.8 91 91 S 3 6 30.09 1019 10 16 0.00 0.00
3:53 am 03:53 Clear 75 23.9 73 22.8 94 94 WSW 3 6 30.06 1018 10 16 0.00 0.00
4:53 am 04:53 Clear 74 23.3 73 22.8 97 97 Calm 30.06 1018 9 14 0.00 0.00
5:53 am 05:53 Partly Cloudy with Mist and Fog 74 23.3 73 22.8 97 97 Calm 30.06 1018 6 10 0.00 0.00
6:53 am 06:53 Sunny with Mist and Fog 74 23.3 73 22.8 97 97 Calm 30.05 1018 4 6 0.00 0.00
7:53 am 07:53 Sunny 79 26.1 73 22.8 82 82 Calm 30.06 1018 10 16 0.00 0.00
8:53 am 08:53 Sunny 81 27.2 73 22.8 77 77 SSW 3 6 30.04 1017 10 16 0.00 0.00
9:53 am 09:53 Sunny 84 28.9 74 23.3 72 72 VRB 3 6 30.05 1018 9 14 0.00 0.00
10:53 am 10:53 Sunny 87 30.6 76 24.4 70 70 VRB 5 7 30.05 1018 9 14 0.00 0.00
11:53 am 11:53 Sunny 90 32.2 71 21.7 54 54 NW 9 15 30.03 1017 10 16 0.00 0.00
12:53 pm 12:53 Sunny 93 33.9 70 21.1 47 47 NW 12 19 30.03 1017 10 16 0.00 0.00
1:53 pm 13:53 Sunny 95 35 69 20.6 43 43 NW 15 24 30.00 1016 10 16 0.00 0.00
2:53 pm 14:53 Sunny 96 35.6 68 20 40 40 NW 10 17 29.96 1015 10 16 0.00 0.00
3:53 pm 15:53 Mostly Sunny 95 35 70 21.1 44 44 NW 12 19 29.94 1014 10 16 0.00 0.00
4:53 pm 16:53 Mostly Sunny 95 35 69 20.6 43 43 W 12 19 29.93 1013 10 16 0.00 0.00
5:31 pm 17:31 Mostly Cloudy with Nearby Thunderstorms 87 30.6 66 18.9 50 50 NNW 31 50 29.97 1015 10 16 0.00 0.00
5:50 pm 17:50 Mostly Cloudy with Strong Thunderstorms 75 24 66 19 74 74 NNE 20 31 30.01 1016 3 5 0.06 1.52
5:53 pm 17:53 Mostly Cloudy with Thunderstorms 74 23.3 66 18.9 76 76 NNE 13 20 29.99 1016 7 11 0.06 1.52
6:20 pm 18:20 Mostly Cloudy 73 22.8 67 19.4 81 81 Calm 29.95 1014 10 16 0.00 0.00
6:31 pm 18:31 Partly Cloudy with Nearby Thunderstorms 72 22.2 68 20 87 87 Calm 29.94 1014 10 16 0.00 0.00
6:46 pm 18:46 Partly Cloudy 74 23.3 70 21.1 88 88 WSW 3 6 29.93 1014 10 16 0.00 0.00
6:53 pm 18:53 Partly Cloudy 75 23.9 69 20.6 82 82 WNW 6 9 29.92 1013 10 16 0.00 0.00
7:53 pm 19:53 Sunny 77 25 68 20 74 74 W 3 6 29.92 1013 10 16 0.00 0.00
8:53 pm 20:53 Clear 76 24.4 68 20 77 77 WSW 6 9 29.91 1013 10 16 0.00 0.00
9:53 pm 21:53 Clear 76 24.4 68 20 77 77 W 7 11 29.91 1013 10 16 0.00 0.00
10:53 pm 22:53 Clear 75 23.9 69 20.6 82 82 WNW 8 13 29.93 1014 10 16 0.00 0.00
11:53 pm 23:53 Clear 75 23.9 69 20.6 82 82 NW 8 13 29.92 1013 10 16 0.00 0.00

Powered by AerisWeather